Regional Weather Roundup
Issued by NWS

Home | Current Version | Previous Version | Graphics & Text | Print | Product List | Glossary On
Versions: 1 2 3 4 5 6 7 8 9 10 11 12 13 14 15 16 17 18 19 20 21 22 23 24 25 26 27 28 29 30 31 32 33 34 35 36 37 38 39 40 41 42 43 44 45 46 47 48 49 50
000
ASUS43 KDMX 191807
RWRIA

WEATHER ROUNDUP FOR IOWA
NATIONAL WEATHER SERVICE DES MOINES IA
100 PM CDT SUN APR 19 2015

NOTE: "FAIR" INDICATES FEW OR NO CLOUDS BELOW 12,000 FEET WITH NO
SIGNIFICANT WEATHER AND/OR OBSTRUCTIONS TO VISIBILITY.

* - THESE STATIONS ARE NOT NWS STATIONS...THUS NOT UNDER NWS
QUALITY CONTROL.  THEY ALSO DO NOT REPORT WEATHER SUCH
AS PRECIPITATION OR FOG.

IAZ001>003-012>014-020>022-031>034-043>046-191900-
   NORTHWEST IOWA

CITY           SKY/WX    TMP DP  RH WIND       PRES   REMARKS
CARROLL *      CLOUDY    57  57 100 NW16G22   29.65F FOG
CHEROKEE *     CLOUDY    54  49  82 NW16G31   29.71S
DENISON *      RAIN      52  52 100 NW14G20   29.69F
LE MARS *      CLOUDY    52  46  82 NW21G28   29.76F
ORANGE CITY *  CLOUDY   N/A N/A N/A N20G25    29.74F
SHELDON *      CLOUDY    50  50 100 NW22G30   29.72S
SIOUX CITY     CLOUDY    52  45  77 NW21G35   29.76S
6HR MIN TEMP:  50; 6HR MAX TEMP:  53; 6HR PCP: TRACE;

SPENCER        CLOUDY    55  48  77 N24       29.69F
6HR MIN TEMP:  53; 6HR MAX TEMP:  58;

STORM LAKE *   RAIN      54  52  94 NW26      29.68F
$$

IAZ055>058-069>071-079>083-090>094-191900-
   SOUTHWEST IOWA

CITY           SKY/WX    TMP DP  RH WIND       PRES   REMARKS
ATLANTIC *     RAIN      55  55 100 NW25G31   29.67S
AUDUBON *      RAIN      55  54  94 NW14G20   29.67F
CLARINDA *     RAIN      57  57 100 NW14G21   29.67F
COUNCIL BLFS * LGT RAIN  52  52 100 NW21G32   29.71F
CRESTON *      LGT RAIN  57  57 100 N8        29.63F
HARLAN  *      LGT RAIN  54  54 100 NW20G30   29.72F VSB 3/4
LAMONI         TSTM      61  58  90 SW20      29.60F
6HR MIN TEMP:  59; 6HR MAX TEMP:  67; 6HR PCP:  0.25;

RED OAK *      RAIN      54  54 100 NW22G29   29.67F
SHENANDOAH *   CLOUDY    55  54  94 NW20G29   29.68F
$$

IAZ047>049-059>061-072>074-084-191900-
   CENTRAL IOWA

CITY           SKY/WX    TMP DP  RH WIND       PRES   REMARKS
AMES           CLOUDY    61  56  83 CALM      29.62F
6HR MIN TEMP:  55; 6HR MAX TEMP:  62; 6HR PCP:  0.04;

ANKENY *       CLOUDY    64  59  82 N7        29.61F
CHARITON *     CLOUDY    64  59  82 CALM      29.60F
DES MOINES     CLOUDY    66  57  72 NE6       29.61F
6HR MIN TEMP:  58; 6HR MAX TEMP:  66; 6HR PCP:  0.01;

GRINNELL*      PTSUNNY   61  57  88 E3        29.62F
KNOXVILLE *    CLOUDY    64  57  77 E5        29.58F
MARSHALLTOWN   LGT RAIN  60  56  86 CALM      29.62F
6HR MIN TEMP:  55; 6HR MAX TEMP:  60; 6HR PCP:  0.01;

PELLA *        MOSUNNY   67  61  82 CALM      29.62F
PERRY *        CLOUDY    63  59  88 NW12      29.63F
$$

IAZ004>006-015-016-023>025-035-036-191900-
   NORTH CENTRAL IOWA

CITY           SKY/WX    TMP DP  RH WIND       PRES   REMARKS
ALGONA *       PTSUNNY   59  55  88 N13G20    29.65F
CLARION *      CLOUDY    63  61  94 NW13      29.63F
ESTHERVILLE    CLOUDY    55  49  80 NW18G30   29.68F
6HR MIN TEMP:  52; 6HR MAX TEMP:  58;

FORT DODGE *   CLOUDY    59  54  82 W7        29.65F
MASON CITY     CLOUDY    61  56  83 SE6       29.65F
6HR MIN TEMP:  52; 6HR MAX TEMP:  62;

FOREST CITY *  LGT RAIN  59  55  88 CALM      29.63F
IOWA FALLS *   LGT RAIN  61  57  88 CALM      29.64F
$$

IAZ007>011-017>019-026>030-037>042-050>054-066-191900-
   NORTHEAST IOWA

CITY           SKY/WX    TMP DP  RH WIND       PRES   REMARKS
CEDAR RAPIDS   PTSUNNY   67  54  63 NE7       29.61F
6HR MIN TEMP:  49; 6HR MAX TEMP:  67; 6HR PCP:  0.09;

CHARLES CITY * CLOUDY    63  57  82 CALM      29.65F
CLINTON *      MOSUNNY   73  48  40 CALM      29.63F
DECORAH *      PTSUNNY   55  46  71 VRB5      29.66F
DUBUQUE        PTSUNNY   70  45  40 VRB6      29.63F
6HR MIN TEMP:  53; 6HR MAX TEMP:  71;

MONTICELLO *   SUNNY     70  50  49 NE8       29.62F
OELWEIN *      SUNNY     57  52  82 SE7       29.64F
WATERLOO       CLOUDY    58  52  80 E6        29.63F
6HR MIN TEMP:  51; 6HR MAX TEMP:  59; 6HR PCP: TRACE;

$$

IAZ064-065-067-068-078-191900-
   EAST CENTRAL IOWA

CITY           SKY/WX    TMP DP  RH WIND       PRES   REMARKS
DAVENPORT      MOSUNNY   73  48  41 E6        29.61F
6HR MIN TEMP:  52; 6HR MAX TEMP:  73;

IOWA CITY      PTSUNNY   70  52  52 E8        29.62F
6HR MIN TEMP:  53; 6HR MAX TEMP:  70; 6HR PCP: TRACE;

MT. PLEASANT * MOSUNNY   68  51  55 N3        29.59F
MUSCATINE *    PTSUNNY   72  50  46 N5        29.60F
QUAD CITIES    MOSUNNY   76  47  35 E10       29.59F
6HR MIN TEMP:  53; 6HR MAX TEMP:  76;

$$

IAZ062-063-075>077-085>089-095>099-191900-
   SOUTHEAST IOWA

CITY           SKY/WX    TMP DP  RH WIND       PRES   REMARKS
BURLINGTON     PTSUNNY   74  55  51 N6        29.57F
6HR MIN TEMP:  56; 6HR MAX TEMP:  74;

FAIRFIELD *    MOSUNNY   66  55  68 NE9       29.59F
FORT MADISON * SUNNY     72  54  53 N3        29.58F
KEOKUK *       CLOUDY    68  55  64 CALM      29.58F
OSKALOOSA *      N/A     68  56  65 E8        29.60F
CENTERVILLE *  SUNNY     68  59  73 CALM      29.60F
OTTUMWA        MOSUNNY   68  57  68 NE10G22   29.59F
6HR MIN TEMP:  56; 6HR MAX TEMP:  69; 6HR PCP:  0.01;

WASHINGTON *   SUNNY     70  55  60 E7        29.60F
$$

ABBREVIATIONS USED IN REMARKS
   TC - TEMPERATURES IN CELSIUS
  WCI - WIND CHILL INDEX
   HX - HEAT INDEX
  VSB - VISIBILITY
$$




USA.gov is the U.S. government's official web portal to all federal, state and local government web resources and services.